• In Uzbekistan
  • List of Countries
  • For 7 days
  • Water Temperature
  • Satellite Maps
  • Weather Map
  • Weather Widgets
  • user-avatar
    Login

    Hourly Weather Francistown

    Today, 18 June, Tuesday

    Time Temperature Precipitation Wind Pressure Humidity
    00:00 +10°C° 0 mm 2 mps 681 mmHg 69%
    01:00 +10°C° 0 mm 2 mps 681 mmHg 74%
    02:00 +9°C° 0 mm 2 mps 681 mmHg 79%
    03:00 +9°C° 0 mm 2 mps 681 mmHg 81%
    04:00 +8°C° 0 mm 2 mps 681 mmHg 84%
    05:00 +9°C° 0 mm 1 mps 681 mmHg 87%
    06:00 +9°C° 0 mm 2 mps 681 mmHg 83%
    07:00 +10°C° 0 mm 2 mps 682 mmHg 79%
    08:00 +12°C° 0 mm 2 mps 683 mmHg 75%
    09:00 +14°C° 0 mm 3 mps 683 mmHg 60%
    10:00 +18°C° 0 mm 4 mps 684 mmHg 46%
    11:00 +22°C° 0 mm 4 mps 684 mmHg 31%
    12:00 +23°C° 0 mm 4 mps 684 mmHg 27%
    13:00 +25°C° 0 mm 4 mps 683 mmHg 23%
    14:00 +26°C° 0 mm 4 mps 683 mmHg 20%
    15:00 +25°C° 0 mm 4 mps 682 mmHg 21%
    16:00 +23°C° 0 mm 4 mps 682 mmHg 22%
    17:00 +22°C° 0 mm 4 mps 681 mmHg 23%
    18:00 +20°C° 0 mm 4 mps 682 mmHg 28%
    19:00 +17°C° 0 mm 4 mps 682 mmHg 32%
    20:00 +14°C° 0 mm 4 mps 682 mmHg 37%
    21:00 +13°C° 0 mm 3 mps 682 mmHg 41%
    22:00 +12°C° 0 mm 3 mps 682 mmHg 45%
    23:00 +12°C° 0 mm 3 mps 682 mmHg 49%

    Tomorrow, 19 June, Wednesday

    Time Temperature Precipitation Wind Pressure Humidity
    00:00 +11°C° 0 mm 3 mps 682 mmHg 53%
    01:00 +10°C° 0 mm 3 mps 682 mmHg 57%
    02:00 +10°C° 0 mm 3 mps 682 mmHg 61%
    03:00 +9°C° 0 mm 3 mps 682 mmHg 64%
    04:00 +9°C° 0 mm 3 mps 682 mmHg 67%
    05:00 +8°C° 0 mm 3 mps 682 mmHg 70%
    06:00 +8°C° 0 mm 4 mps 682 mmHg 66%
    07:00 +10°C° 0 mm 4 mps 683 mmHg 62%
    08:00 +9°C° 0 mm 5 mps 684 mmHg 58%
    09:00 +13°C° 0 mm 6 mps 684 mmHg 50%
    10:00 +16°C° 0 mm 6 mps 685 mmHg 43%
    11:00 +18°C° 0 mm 7 mps 685 mmHg 36%
    12:00 +20°C° 0 mm 6 mps 685 mmHg 33%
    13:00 +21°C° 0 mm 6 mps 684 mmHg 31%
    14:00 +23°C° 0 mm 6 mps 683 mmHg 29%
    15:00 +22°C° 0 mm 6 mps 683 mmHg 30%
    16:00 +21°C° 0 mm 5 mps 683 mmHg 32%
    17:00 +20°C° 0 mm 5 mps 683 mmHg 34%
    18:00 +18°C° 0 mm 4 mps 683 mmHg 40%
    19:00 +14°C° 0 mm 4 mps 683 mmHg 45%
    20:00 +12°C° 0 mm 4 mps 683 mmHg 51%
    21:00 +11°C° 0 mm 3 mps 683 mmHg 57%
    22:00 +10°C° 0 mm 3 mps 683 mmHg 63%
    23:00 +9°C° 0 mm 3 mps 683 mmHg 69%

    Day after tomorrow, 20 June, Thursday

    Time Temperature Precipitation Wind Pressure Humidity
    00:00 +9°C° 0 mm 3 mps 683 mmHg 74%
    01:00 +8°C° 0 mm 2 mps 682 mmHg 79%
    02:00 +7°C° 0 mm 2 mps 682 mmHg 84%
    03:00 +7°C° 0 mm 2 mps 682 mmHg 85%
    04:00 +7°C° 0 mm 2 mps 682 mmHg 87%
    05:00 +6°C° 0 mm 2 mps 682 mmHg 88%
    06:00 +7°C° 0 mm 3 mps 683 mmHg 86%
    07:00 +8°C° 0 mm 3 mps 683 mmHg 83%
    08:00 +8°C° 0 mm 4 mps 684 mmHg 80%
    09:00 +12°C° 0 mm 5 mps 684 mmHg 67%
    10:00 +15°C° 0 mm 5 mps 684 mmHg 54%
    11:00 +19°C° 0 mm 6 mps 685 mmHg 41%
    12:00 +20°C° 0 mm 6 mps 684 mmHg 37%
    13:00 +21°C° 0 mm 6 mps 684 mmHg 32%
    14:00 +22°C° 0 mm 6 mps 683 mmHg 28%
    15:00 +21°C° 0 mm 6 mps 683 mmHg 31%
    16:00 +20°C° 0 mm 5 mps 682 mmHg 34%
    17:00 +19°C° 0 mm 5 mps 682 mmHg 37%
    18:00 +15°C° 0 mm 4 mps 682 mmHg 45%
    19:00 +13°C° 0 mm 4 mps 682 mmHg 53%
    20:00 +11°C° 0 mm 3 mps 682 mmHg 61%
    21:00 +10°C° 0 mm 3 mps 682 mmHg 69%
    22:00 +9°C° 0 mm 3 mps 682 mmHg 77%
    23:00 +8°C° 0 mm 3 mps 682 mmHg 84%

    21 June, Friday

    Time Temperature Precipitation Wind Pressure Humidity
    00:00 +8°C° 0 mm 3 mps 682 mmHg 86%
    01:00 +8°C° 0 mm 3 mps 682 mmHg 88%
    02:00 +8°C° 0 mm 3 mps 681 mmHg 89%
    03:00 +8°C° 0 mm 3 mps 681 mmHg 90%
    04:00 +8°C° 0 mm 3 mps 681 mmHg 90%
    05:00 +8°C° 0 mm 3 mps 681 mmHg 91%
    06:00 +8°C° 0 mm 3 mps 681 mmHg 87%
    07:00 +9°C° 0 mm 3 mps 682 mmHg 83%
    08:00 +10°C° 0 mm 3 mps 682 mmHg 80%
    09:00 +13°C° 0 mm 4 mps 683 mmHg 69%
    10:00 +17°C° 0 mm 4 mps 683 mmHg 58%
    11:00 +20°C° 0 mm 5 mps 683 mmHg 48%
    12:00 +21°C° 0 mm 5 mps 683 mmHg 43%
    13:00 +22°C° 0 mm 5 mps 682 mmHg 39%
    14:00 +23°C° 0 mm 5 mps 681 mmHg 35%
    15:00 +22°C° 0 mm 4 mps 681 mmHg 38%
    16:00 +21°C° 0 mm 4 mps 680 mmHg 42%
    17:00 +21°C° 0 mm 4 mps 680 mmHg 45%
    18:00 +18°C° 0 mm 4 mps 680 mmHg 54%
    19:00 +16°C° 0 mm 3 mps 680 mmHg 63%
    20:00 +13°C° 0 mm 3 mps 680 mmHg 72%
    21:00 +13°C° 0 mm 2 mps 679 mmHg 76%
    22:00 +12°C° 0 mm 2 mps 679 mmHg 79%
    23:00 +12°C° 0 mm 2 mps 679 mmHg 83%

    22 June, Saturday

    Time Temperature Precipitation Wind Pressure Humidity
    00:00 +11°C° 0 mm 1 mps 679 mmHg 84%
    01:00 +10°C° 0 mm 1 mps 678 mmHg 84%
    02:00 +10°C° 0 mm 1 mps 678 mmHg 85%
    03:00 +9°C° 0 mm 0 mps 678 mmHg 85%
    04:00 +8°C° 0 mm 0 mps 678 mmHg 85%
    05:00 +8°C° 0 mm 0 mps 678 mmHg 85%
    06:00 +9°C° 0 mm 0 mps 678 mmHg 80%
    07:00 +10°C° 0 mm 0 mps 679 mmHg 75%
    08:00 +12°C° 0 mm 0 mps 680 mmHg 70%
    09:00 +16°C° 0 mm 1 mps 680 mmHg 58%
    10:00 +18°C° 0 mm 2 mps 681 mmHg 47%
    11:00 +21°C° 0 mm 3 mps 681 mmHg 35%
    12:00 +24°C° 0 mm 3 mps 681 mmHg 30%
    13:00 +25°C° 0 mm 3 mps 680 mmHg 25%
    14:00 +26°C° 0 mm 3 mps 680 mmHg 21%
    15:00 +25°C° 0 mm 3 mps 679 mmHg 21%
    16:00 +25°C° 0 mm 3 mps 679 mmHg 21%
    17:00 +24°C° 0 mm 2 mps 679 mmHg 21%
    18:00 +20°C° 0 mm 2 mps 679 mmHg 25%
    19:00 +18°C° 0 mm 2 mps 679 mmHg 29%
    20:00 +15°C° 0 mm 2 mps 679 mmHg 33%
    21:00 +14°C° 0 mm 2 mps 679 mmHg 35%
    22:00 +13°C° 0 mm 2 mps 679 mmHg 36%
    23:00 +12°C° 0 mm 1 mps 679 mmHg 38%

    23 June, Sunday

    Time Temperature Precipitation Wind Pressure Humidity
    00:00 +11°C° 0 mm 3 mps 679 mmHg 47%
    01:00 +10°C° 0 mm 4 mps 679 mmHg 56%
    02:00 +9°C° 0 mm 5 mps 679 mmHg 64%
    03:00 +9°C° 0 mm 5 mps 679 mmHg 72%
    04:00 +9°C° 0 mm 6 mps 679 mmHg 79%
    05:00 +10°C° 0 mm 6 mps 680 mmHg 87%
    06:00 +10°C° 0 mm 6 mps 680 mmHg 82%
    07:00 +11°C° 0 mm 6 mps 681 mmHg 77%
    08:00 +13°C° 0 mm 6 mps 682 mmHg 72%
    09:00 +14°C° 0 mm 6 mps 682 mmHg 66%
    10:00 +15°C° 0 mm 6 mps 682 mmHg 60%
    11:00 +17°C° 0 mm 5 mps 682 mmHg 54%
    12:00 +19°C° 0 mm 5 mps 682 mmHg 48%
    13:00 +20°C° 0 mm 5 mps 681 mmHg 42%
    14:00 +21°C° 0 mm 5 mps 681 mmHg 37%
    15:00 +21°C° 0 mm 4 mps 680 mmHg 37%
    16:00 +20°C° 0 mm 4 mps 680 mmHg 38%
    17:00 +19°C° 0 mm 4 mps 680 mmHg 39%
    18:00 +17°C° 0 mm 4 mps 680 mmHg 50%
    19:00 +13°C° 0 mm 4 mps 680 mmHg 61%
    20:00 +11°C° 0 mm 4 mps 680 mmHg 72%
    21:00 +10°C° 0 mm 3 mps 680 mmHg 78%
    22:00 +9°C° 0 mm 3 mps 680 mmHg 83%
    23:00 +8°C° 0 mm 3 mps 680 mmHg 89%
    Show more